Regional Weather Roundup
Issued by NWS

Home | Current Version | Previous Version | Graphics & Text | Print | Product List | Glossary Off
Versions: 1 2 3 4 5 6 7 8 9 10 11 12 13 14 15 16 17 18 19 20 21 22 23 24 25 26 27 28 29 30 31 32 33 34 35 36 37 38 39 40 41 42 43 44 45 46 47 48 49 50

000
ASUS43 KMKX 210000
RWRWI

WISCONSIN REGIONAL WEATHER ROUNDUP
NATIONAL WEATHER SERVICE MILWAUKEE/SULLIVAN WI
700 PM CDT WED AUG 20 2014

NOTE: "FAIR" INDICATES FEW OR NO CLOUDS BELOW 12,000 FEET WITH NO
SIGNIFICANT WEATHER AND/OR OBSTRUCTIONS TO VISIBILITY.

WIZ001-002-006>008-014>016-023>028-210100-
NORTHWEST WISCONSIN

CITY           SKY/WX    TMP DP  RH WIND       PRES   REMARKS
SUPERIOR ARPT  CLOUDY    66  62  85 E6        29.91S
ASHLAND        CLOUDY    67  61  81 NE6       29.94S
6HR MIN TEMP:  67; 6HR MAX TEMP:  72;

HAYWARD        CLOUDY    69  62  78 NE3       29.93S
6HR MIN TEMP:  68; 6HR MAX TEMP:  71;

SIREN          PTSUNNY   73  62  67 E5        29.89S
RICE LAKE      PTSUNNY   72  61  68 NE5       29.90F
6HR MIN TEMP:  71; 6HR MAX TEMP:  75; 6HR PCP:  0.01;

LADYSMITH      PTCLDY    72  62  70 NE6       29.93S
EAU CLAIRE     PTSUNNY   75  64  68 NE3       29.88R
6HR MIN TEMP:  72; 6HR MAX TEMP:  79;

MENOMONIE      MOCLDY    76  63  63 NE6       29.88S
6HR MIN TEMP:  74; 6HR MAX TEMP:  81;

NEW RICHMOND   PTSUNNY   74  64  69 E8        29.88S
OSCEOLA        PTSUNNY   77  65  65 E7        29.89S
$$

WIZ003>005-009-010-017-018-210100-
NORTH CENTRAL WISCONSIN

CITY           SKY/WX    TMP DP  RH WIND       PRES   REMARKS
WOODRUFF       CLOUDY    69  62  77 CALM      29.94S
RHINELANDER    CLOUDY    67  60  78 CALM      29.95S
6HR MIN TEMP:  66; 6HR MAX TEMP:  69;

EAGLE RIVER    CLOUDY    66  59  78 CALM      29.94S
LAND O LAKES   CLOUDY    65  61  88 N5        29.96R
PHILLIPS       CLOUDY    67  62  83 CALM      29.93S
6HR MIN TEMP:  67; 6HR MAX TEMP:  69;

TOMAHAWK       CLOUDY    67  61  79 CALM      29.94S
MEDFORD        PTCLDY    69  61  74 N5        29.93S
MERRILL        CLOUDY    70  62  75 CALM      29.93S
$$

WIZ029-030-035-036-043>047-210100-
CENTRAL WISCONSIN

CITY           SKY/WX    TMP DP  RH WIND       PRES   REMARKS
WAUSAU         CLOUDY    73  60  63 CALM      29.90S
6HR MIN TEMP:  67; 6HR MAX TEMP:  75; 6HR PCP: TRACE;

MOSINEE        PTCLDY    72  63  73 VRB5      29.92S
MARSHFIELD     PTCLDY    74  62  66 NE6       29.91S
6HR MIN TEMP:  68; 6HR MAX TEMP:  77;

STEVENS POINT  PTCLDY    71  60  67 N3        29.91S
WAUPACA        PTCLDY    76  64  65 MISG      29.90S
WAUTOMA        NOT AVBL
WISC RAPIDS    PTCLDY    75  62  64 NE7       29.91S
6HR MIN TEMP:  72; 6HR MAX TEMP:  79;

CAMP DOUGLAS   NOT AVBL
$$

WIZ011>013-019>022-031-037>040-048>050-210100-
NORTHEAST WISCONSIN

CITY           SKY/WX    TMP DP  RH WIND       PRES   REMARKS
ANTIGO         CLOUDY    68  62  79 N6        29.94S
STURGEON BAY   CLEAR     70  61  73 NW3       29.92R
6HR MIN TEMP:  66; 6HR MAX TEMP:  72;

GREEN BAY      CLEAR     74  63  68 CALM      29.90F
6HR MIN TEMP:  68; 6HR MAX TEMP:  75;

MANITOWOC      NOT AVBL
APPLETON       PTCLDY    73  61  64 N8        29.91
CLINTONVILLE   PTCLDY    73  59  60 NE3       29.90S
OSHKOSH        CLEAR     74  64  71 NE7       29.90R
6HR MIN TEMP:  73; 6HR MAX TEMP:  76;

$$

WIZ032>034-041-042-053>061-210100-
SOUTHWEST WISCONSIN

CITY           SKY/WX    TMP DP  RH WIND       PRES   REMARKS
LA CROSSE      CLOUDY    82  67  60 E5        29.86S HX  84
6HR MIN TEMP:  81; 6HR MAX TEMP:  85;

SPARTA         MOCLDY    80  64  59 CALM      29.89R HX  81
VIROQUA        FAIR      78  68  72 CALM      29.90S
BOSCOBEL       CLOUDY    82  68  62 W3        29.87S HX  85
6HR MIN TEMP:  82; 6HR MAX TEMP:  88;

PRAIRIE DU CHI MOCLDY    78  66  68 S10       29.87S HX  80
PLATTEVILLE    MOCLDY    78  69  74 SW12      29.91R HX  80
$$

WIZ056-057-062-063-064-067-068-210100-
SOUTH CENTRAL WISCONSIN

CITY           SKY/WX    TMP DP  RH WIND       PRES   REMARKS
BARABOO/DELLS  MOCLDY    81  63  54 CALM      29.88S HX  82
LONE ROCK      NOT AVBL
WATERTOWN      PTCLDY    80  66  62 CALM      29.88R HX  81
MADISON        CLOUDY    79  68  69 CALM      29.87F HX  81
6HR MIN TEMP:  79; 6HR MAX TEMP:  85;

MIDDLETON      FAIR      81  66  60 CALM      29.88F HX  83
MONROE         MOCLDY    81  66  61 CALM      29.89F HX  83
JANESVILLE     PTCLDY    82  64  54 W8        29.87F HX  84
$$

WIZ051-052-058>065-066-070>072-210100-
SOUTHEAST WISCONSIN

CITY           SKY/WX    TMP DP  RH WIND       PRES   REMARKS
MILWAUKEE      MOCLDY    70  65  84 E6        29.90R
6HR MIN TEMP:  70; 6HR MAX TEMP:  78;

WAUKESHA       MOCLDY    73  64  73 E7        29.91R
MILWAUKEE/TIMM CLEAR     73  61  64 E5        29.91R
RACINE         PTCLDY    71  66  84 E6        29.91R
6HR MIN TEMP:  71; 6HR MAX TEMP:  80;

BURLINGTON     PTCLDY    77  68  73 CALM      29.89S
KENOSHA        PTCLDY    74  69  85 NE8       29.89R
6HR MIN TEMP:  74; 6HR MAX TEMP:  84;

FOND DU LAC    CLEAR     74  64  71 MISG      29.90R
6HR MIN TEMP:  73; 6HR MAX TEMP:  78;

SHEBOYGAN      CLEAR     70  63  78 E5        29.91S
6HR MIN TEMP:  70; 6HR MAX TEMP:  78;

WEST BEND      CLEAR     72  61  68 E7        29.90S
JUNEAU         PTCLDY    77  42  28 N6        29.90R
$$

LSZ147-162-210100-
LAKE SUPERIOR

STATION/POSITION TIME  TEMP    WIND        PRES    WAVE
                       AIR SEA DIR/SP/G            HT/PER
                 (UTC) (F)     (DEG/KT/KT) (MB)    (FT/S)
W MID LAKE BUOY  2250   59 59  110/  2/  2 1013.5R   0
DEVILS ISLAND    2300   65      80/  8/  8 1013.3S
PORT WING        2300   70     140/  2/  4 1013.2S
SAXON HARBOR     2300   67      50/  3/  5 1013.5R
$$

LMZ867-665-643>646-210100-
LAKE MICHIGAN

STATION/POSITION TIME  TEMP    WIND        PRES    WAVE
                       AIR SEA DIR/SP/G            HT/PER
                 (UTC) (F)     (DEG/KT/KT) (MB)    (FT/S)
N MID LAKE BUOY  2250   63 63  210/  8/  8 1012.3R   1
NORTHPORT PIER   2300   65     140/  2/  4 1012.9R
SISTER BAY       2341   68        CALM       N/A
KEWAUNEE LAKESHO 2300   67     170/  4/  4 1011.9R
SHEBOYGAN LAKESH 2300   67 66  150/  3/  4 1012.9R
ATWATER BUOY     2300   70     110/  6/  8 1013.1R
MILWAUKEE LAKESH 2300   70      80/  6/  7   N/A
S MID LAKE BUOY  2250   70 69   80/  8/  8 1011.7S   0
KENOSHA   LAKESH 2300   74     150/  3/  6 1011.2R
$$

TC  - TEMPERATURE IN CELSIUS
VSB - VISIBILITY IN STATUTE MILES
WCI - WIND CHILL INDEX
HX  - HEAT INDEX



USA.gov is the U.S. government's official web portal to all federal, state and local government web resources and services.